QPF
0.00 0.00 0.00 0.00 0.00 0.00 0.00 0.00 0.00 0.01 0.03 0.05 0.08 0.08 0.07 0.06 0.05 0.04 0.02 0.01 0.01 0.00 0.00 0.00 0.00 0.00 0.00 0.00 0.00 0.00 0.00 0.00 0.00 0.00 0.01 0.01 0.01 0.01 0.00 0.00 0.00 0.00 0.00 0.00
0.00 0.00 0.00 0.00 0.00 0.00 0.00 0.00 0.01 0.02 0.03 0.06 0.10 0.12 0.13 0.13 0.10 0.07 0.06 0.04 0.02 0.01 0.01 0.00 0.00 0.00 0.00 0.00 0.00 0.00 0.00 0.01 0.01 0.01 0.01 0.01 0.01 0.01 0.00 0.00 0.00 0.00 0.00 0.00
0.00 0.00 0.00 0.00 0.00 0.01 0.01 0.01 0.02 0.04 0.04 0.05 0.07 0.10 0.13 0.15 0.13 0.09 0.06 0.04 0.02 0.01 0.01 0.01 0.01 0.01 0.01 0.01 0.01 0.01 0.02 0.02 0.02 0.02 0.01 0.01 0.01 0.00 0.00 0.00 0.00 0.00 0.00 0.00
0.00 0.00 0.01 0.01 0.01 0.01 0.01 0.02 0.02 0.03 0.04 0.06 0.07 0.09 0.11 0.11 0.12 0.09 0.07 0.06 0.04 0.03 0.02 0.02 0.02 0.02 0.01 0.01 0.02 0.02 0.03 0.02 0.02 0.01 0.01 0.01 0.00 0.00 0.00 0.00 0.00 0.00 0.00 0.00
0.01 0.01 0.01 0.03 0.01 0.01 0.04 0.05 0.03 0.04 0.05 0.06 0.07 0.07 0.07 0.07 0.07 0.07 0.06 0.04 0.03 0.02 0.02 0.01 0.01 0.01 0.01 0.02 0.02 0.02 0.02 0.01 0.01 0.01 0.01 0.00 0.00 0.00 0.00 0.00 0.00 0.00 0.00 0.00
0.02 0.02 0.03 0.04 0.02 0.03 0.06 0.09 0.08 0.07 0.07 0.07 0.07 0.07 0.04 0.03 0.03 0.02 0.02 0.01 0.01 0.01 0.01 0.01 0.01 0.01 0.01 0.02 0.02 0.01 0.01 0.01 0.01 0.01 0.00 0.00 0.00 0.00 0.00 0.00 0.00 0.00 0.00 0.00
0.03 0.04 0.05 0.02 0.02 0.06 0.10 0.12 0.15 0.12 0.08 0.06 0.05 0.04 0.02 0.01 0.01 0.01 0.01 0.01 0.01 0.01 0.01 0.02 0.02 0.01 0.01 0.01 0.01 0.01 0.01 0.00 0.01 0.00 0.00 0.00 0.00 0.00 0.00 0.00 0.00 0.00 0.00 0.00
0.04 0.06 0.07 0.03 0.05 0.10 0.11 0.10 0.12 0.09 0.04 0.02 0.01 0.00 0.00 0.00 0.00 0.00 0.00 0.01 0.01 0.01 0.01 0.01 0.01 0.01 0.01 0.01 0.01 0.01 0.01 0.01 0.01 0.01 0.00 0.00 0.00 0.00 0.00 0.01 0.01 0.01 0.01 0.01
0.04 0.06 0.07 0.05 0.04 0.04 0.05 0.06 0.06 0.05 0.02 0.01 0.00 0.00 0.00 0.00 0.00 0.00 0.00 0.00 0.01 0.01 0.01 0.01 0.01 0.01 0.01 0.01 0.01 0.01 0.01 0.01 0.01 0.01 0.00 0.00 0.00 0.01 0.01 0.01 0.01 0.01 0.01 0.01
0.04 0.05 0.06 0.05 0.04 0.03 0.03 0.02 0.02 0.01 0.01 0.00 0.00 0.00 0.00 0.00 0.00 0.00 0.00 0.01 0.01 0.01 0.00 0.01 0.01 0.01 0.01 0.01 0.01 0.02 0.02 0.01 0.01 0.01 0.01 0.01 0.01 0.01 0.01 0.01 0.01 0.01 0.01 0.01
0.03 0.04 0.04 0.04 0.03 0.02 0.01 0.00 0.00 0.00 0.00 0.00 0.00 0.00 0.00 0.00 0.00 0.01 0.01 0.01 0.01 0.00 0.00 0.00 0.00 0.00 0.01 0.01 0.01 0.02 0.02 0.01 0.01 0.01 0.01 0.01 0.01 0.00 0.00 0.01 0.00 0.00 0.01 0.01
0.02 0.03 0.04 0.04 0.02 0.01 0.01 0.00 0.00 0.00 0.00 0.01 0.01 0.01 0.01 0.01 0.01 0.01 0.01 0.00 0.00 0.00 0.00 0.00 0.00 0.00 0.00 0.01 0.01 0.01 0.02 0.02 0.01 0.00 0.00 0.01 0.01 0.01 0.01 0.00 0.00 0.00 0.00 0.00
0.01 0.01 0.01 0.01 0.00 0.01 0.01 0.00 0.00 0.01 0.01 0.01 0.01 0.01 0.01 0.01 0.00 0.00 0.00 0.00 0.00 0.00 0.00 0.00 0.00 0.00 0.00 0.00 0.00 0.00 0.01 0.02 0.01 0.01 0.01 0.01 0.01 0.02 0.03 0.02 0.00 0.00 0.00 0.00
0.00 0.00 0.00 0.00 0.01 0.01 0.01 0.01 0.00 0.01 0.02 0.02 0.03 0.02 0.01 0.00 0.00 0.00 0.00 0.00 0.00 0.00 0.00 0.00 0.00 0.00 0.00 0.00 0.00 0.01 0.02 0.01 0.01 0.02 0.02 0.01 0.01 0.01 0.02 0.02 0.02 0.02 0.01 0.01
0.00 0.01 0.01 0.01 0.01 0.01 0.01 0.01 0.01 0.01 0.01 0.02 0.02 0.01 0.00 0.00 0.00 0.00 0.00 0.00 0.00 0.00 0.00 0.00 0.00 0.00 0.00 0.00 0.00 0.00 0.01 0.02 0.01 0.01 0.01 0.01 0.01 0.01 0.01 0.01 0.01 0.02 0.01 0.01
0.00 0.00 0.00 0.01 0.01 0.01 0.01 0.01 0.01 0.01 0.01 0.00 0.00 0.00 0.00 0.00 0.00 0.00 0.00 0.00 0.00 0.00 0.00 0.00 0.00 0.00 0.00 0.00 0.00 0.00 0.00 0.00 0.00 0.01 0.01 0.01 0.01 0.01 0.01 0.01 0.01 0.02 0.01 0.01
0.00 0.00 0.00 0.01 0.01 0.01 0.01 0.01 0.01 0.01 0.00 0.00 0.00 0.00 0.00 0.00 0.00 0.01 0.00 0.00 0.00 0.00 0.00 0.00 0.00 0.00 0.00 0.00 0.00 0.00 0.00 0.00 0.00 0.00 0.01 0.01 0.01 0.01 0.00 0.00 0.01 0.01 0.01 0.00
0.00 0.00 0.00 0.00 0.01 0.01 0.01 0.01 0.00 0.00 0.00 0.00 0.00 0.00 0.00 0.00 0.00 0.00 0.00 0.00 0.00 0.00 0.00 0.00 0.00 0.00 0.00 0.00 0.00 0.00 0.00 0.00 0.00 0.00 0.01 0.01 0.01 0.00 0.00 0.00 0.00 0.00 0.00 0.00
0.00 0.00 0.00 0.00 0.00 0.01 0.01 0.00 0.00 0.00 0.00 0.00 0.00 0.00 0.00 0.00 0.00 0.00 0.00 0.00 0.00 0.00 0.00 0.00 0.00 0.00 0.00 0.00 0.00 0.00 0.00 0.00 0.00 0.00 0.00 0.00 0.00 0.00 0.00 0.00 0.00 0.00 0.00 0.00
0.00 0.00 0.00 0.00 0.00 0.00 0.00 0.00 0.00 0.00 0.00 0.00 0.00 0.00 0.00 0.00 0.00 0.00 0.00 0.00 0.00 0.00 0.00 0.00 0.00 0.00 0.00 0.00 0.00 0.00 0.00 0.00 0.00 0.00 0.00 0.00 0.00 0.00 0.00 0.00 0.00 0.00 0.00 0.00
0.00 0.00 0.00 0.00 0.00 0.00 0.00 0.00 0.00 0.00 0.00 0.00 0.00 0.00 0.00 0.00 0.00 0.00 0.00 0.00 0.00 0.00 0.00 0.00 0.00 0.00 0.00 0.00 0.00 0.00 0.00 0.00 0.00 0.00 0.00 0.00 0.00 0.00 0.00 0.00 0.00 0.00 0.00 0.00
0.00 0.00 0.00 0.00 0.00 0.00 0.00 0.00 0.00 0.00 0.00 0.00 0.00 0.00 0.00 0.00 0.00 0.00 0.00 0.00 0.00 0.00 0.00 0.00 0.00 0.00 0.00 0.00 0.00 0.00 0.00 0.00 0.00 0.00 0.00 0.00 0.00 0.00 0.00 0.00 0.00 0.00 0.00 0.00
0.00 0.00 0.00 0.00 0.00 0.00 0.00 0.00 0.00 0.00 0.00 0.00 0.00 0.00 0.00 0.00 0.00 0.00 0.00 0.00 0.00 0.00 0.00 0.00 0.00 0.00 0.00 0.00 0.00 0.00 0.00 0.00 0.00 0.00 0.00 0.00 0.00 0.00 0.00 0.00 0.00 0.00 0.00 0.00
0.00 0.00 0.00 0.00 0.00 0.00 0.00 0.00 0.00 0.00 0.00 0.00 0.00 0.00 0.00 0.00 0.00 0.00 0.00 0.00 0.00 0.00 0.00 0.00 0.00 0.00 0.00 0.00 0.00 0.00 0.00 0.00 0.00 0.00 0.00 0.00 0.00 0.00 0.00 0.00 0.00 0.00 0.00 0.00
0.00 0.00 0.00 0.00 0.00 0.00 0.00 0.00 0.00 0.00 0.00 0.00 0.00 0.00 0.00 0.00 0.00 0.00 0.00 0.00 0.00 0.00 0.00 0.00 0.00 0.00 0.00 0.00 0.00 0.00 0.00 0.00 0.00 0.00 0.00 0.00 0.00 0.00 0.00 0.00 0.00 0.00 0.00 0.00
0.00 0.00 0.00 0.00 0.00 0.00 0.00 0.00 0.00 0.00 0.00 0.00 0.00 0.00 0.00 0.00 0.00 0.00 0.00 0.00 0.00 0.00 0.00 0.00 0.00 0.00 0.00 0.00 0.00 0.00 0.00 0.00 0.00 0.00 0.00 0.00 0.00 0.00 0.00 0.00 0.00 0.00 0.00 0.00
0.01 0.00 0.00 0.00 0.00 0.00 0.00 0.00 0.00 0.00 0.00 0.00 0.00 0.00 0.00 0.00 0.00 0.00 0.00 0.00 0.00 0.00 0.00 0.00 0.00 0.00 0.00 0.00 0.00 0.00 0.00 0.00 0.00 0.00 0.00 0.00 0.00 0.00 0.00 0.00 0.00 0.00 0.00 0.00
MSLP
1010.69 1010.34 1010.04 1009.79 1009.62 1009.53 1009.53 1009.64 1009.87 1010.25 1010.79 1011.48 1012.34 1013.31 1014.36 1015.41 1016.41 1017.29 1018.02 1018.57 1018.94 1019.18 1019.33 1019.45 1019.60 1019.82 1020.12 1020.51 1020.94 1021.38 1021.78 1022.10 1022.31 1022.43 1022.45 1022.42 1022.37 1022.35 1022.38 1022.48 1022.63 1022.81 1023.00 1023.15
1011.29 1010.96 1010.65 1010.38 1010.16 1010.03 1009.99 1010.09 1010.32 1010.71 1011.27 1011.99 1012.86 1013.83 1014.86 1015.88 1016.84 1017.69 1018.40 1018.95 1019.35 1019.65 1019.89 1020.12 1020.38 1020.69 1021.08 1021.52 1021.98 1022.41 1022.77 1023.04 1023.19 1023.22 1023.17 1023.06 1022.95 1022.88 1022.86 1022.93 1023.06 1023.23 1023.42 1023.57
1011.99 1011.69 1011.39 1011.10 1010.87 1010.71 1010.66 1010.74 1010.98 1011.39 1011.97 1012.71 1013.59 1014.56 1015.56 1016.55 1017.47 1018.28 1018.95 1019.48 1019.90 1020.23 1020.51 1020.80 1021.12 1021.49 1021.92 1022.38 1022.83 1023.23 1023.55 1023.76 1023.85 1023.82 1023.70 1023.54 1023.39 1023.28 1023.25 1023.30 1023.42 1023.60 1023.79 1023.95
1012.74 1012.48 1012.19 1011.91 1011.66 1011.50 1011.44 1011.53 1011.79 1012.22 1012.83 1013.60 1014.49 1015.45 1016.44 1017.39 1018.26 1019.02 1019.65 1020.15 1020.54 1020.86 1021.14 1021.44 1021.77 1022.15 1022.56 1023.00 1023.42 1023.78 1024.05 1024.20 1024.23 1024.16 1024.00 1023.82 1023.65 1023.53 1023.49 1023.55 1023.67 1023.86 1024.05 1024.21
1013.47 1013.23 1012.97 1012.70 1012.46 1012.31 1012.27 1012.39 1012.67 1013.14 1013.79 1014.58 1015.48 1016.45 1017.41 1018.33 1019.16 1019.86 1020.43 1020.87 1021.20 1021.48 1021.73 1021.99 1022.28 1022.62 1022.99 1023.37 1023.73 1024.04 1024.25 1024.36 1024.35 1024.25 1024.09 1023.91 1023.74 1023.64 1023.61 1023.67 1023.81 1024.00 1024.19 1024.35
1014.09 1013.88 1013.64 1013.40 1013.19 1013.07 1013.07 1013.22 1013.55 1014.07 1014.75 1015.57 1016.50 1017.46 1018.40 1019.28 1020.05 1020.69 1021.19 1021.56 1021.83 1022.03 1022.21 1022.41 1022.63 1022.90 1023.20 1023.51 1023.81 1024.05 1024.22 1024.29 1024.27 1024.18 1024.03 1023.87 1023.73 1023.65 1023.65 1023.73 1023.87 1024.05 1024.23 1024.37
1014.55 1014.37 1014.16 1013.96 1013.79 1013.72 1013.77 1013.99 1014.37 1014.94 1015.66 1016.51 1017.44 1018.39 1019.31 1020.14 1020.86 1021.43 1021.86 1022.15 1022.34 1022.47 1022.57 1022.69 1022.83 1023.02 1023.24 1023.49 1023.72 1023.91 1024.05 1024.11 1024.09 1024.02 1023.90 1023.78 1023.69 1023.65 1023.67 1023.76 1023.91 1024.08 1024.24 1024.36
1014.84 1014.70 1014.53 1014.37 1014.27 1014.26 1014.38 1014.66 1015.11 1015.72 1016.47 1017.34 1018.26 1019.19 1020.07 1020.85 1021.50 1022.01 1022.36 1022.58 1022.71 1022.76 1022.80 1022.84 1022.91 1023.03 1023.19 1023.37 1023.55 1023.71 1023.83 1023.89 1023.90 1023.86 1023.79 1023.73 1023.68 1023.68 1023.73 1023.84 1023.98 1024.13 1024.27 1024.35
1015.00 1014.88 1014.77 1014.68 1014.65 1014.72 1014.91 1015.26 1015.76 1016.40 1017.17 1018.03 1018.93 1019.82 1020.64 1021.36 1021.94 1022.38 1022.67 1022.84 1022.90 1022.91 1022.89 1022.89 1022.91 1022.98 1023.09 1023.23 1023.38 1023.52 1023.63 1023.71 1023.75 1023.76 1023.74 1023.73 1023.73 1023.77 1023.85 1023.96 1024.10 1024.23 1024.35 1024.40
1015.07 1015.01 1014.96 1014.94 1015.00 1015.15 1015.42 1015.82 1016.35 1017.01 1017.77 1018.60 1019.45 1020.27 1021.02 1021.66 1022.18 1022.55 1022.79 1022.92 1022.95 1022.93 1022.89 1022.86 1022.86 1022.90 1022.99 1023.10 1023.23 1023.37 1023.49 1023.59 1023.65 1023.70 1023.74 1023.77 1023.82 1023.89 1023.99 1024.11 1024.24 1024.36 1024.45 1024.49
1015.14 1015.13 1015.16 1015.23 1015.37 1015.60 1015.93 1016.38 1016.93 1017.58 1018.30 1019.07 1019.84 1020.57 1021.23 1021.80 1022.24 1022.56 1022.77 1022.87 1022.89 1022.87 1022.84 1022.81 1022.80 1022.84 1022.91 1023.01 1023.13 1023.26 1023.38 1023.49 1023.58 1023.65 1023.72 1023.79 1023.87 1023.96 1024.08 1024.21 1024.34 1024.46 1024.54 1024.57
1015.25 1015.32 1015.44 1015.60 1015.82 1016.12 1016.50 1016.97 1017.51 1018.12 1018.79 1019.47 1020.14 1020.78 1021.34 1021.83 1022.21 1022.48 1022.66 1022.76 1022.79 1022.79 1022.77 1022.76 1022.77 1022.80 1022.86 1022.95 1023.05 1023.16 1023.26 1023.36 1023.45 1023.54 1023.62 1023.70 1023.80 1023.91 1024.04 1024.18 1024.32 1024.45 1024.54 1024.58
1015.43 1015.59 1015.79 1016.04 1016.34 1016.69 1017.11 1017.58 1018.10 1018.66 1019.24 1019.83 1020.40 1020.94 1021.41 1021.82 1022.15 1022.39 1022.56 1022.67 1022.72 1022.75 1022.75 1022.76 1022.77 1022.80 1022.84 1022.90 1022.97 1023.04 1023.11 1023.18 1023.25 1023.32 1023.39 1023.48 1023.58 1023.71 1023.85 1024.00 1024.15 1024.29 1024.41 1024.47
1015.65 1015.89 1016.19 1016.52 1016.88 1017.28 1017.72 1018.18 1018.67 1019.17 1019.67 1020.17 1020.65 1021.09 1021.49 1021.84 1022.13 1022.36 1022.53 1022.65 1022.73 1022.78 1022.81 1022.83 1022.84 1022.85 1022.86 1022.87 1022.88 1022.90 1022.91 1022.93 1022.96 1022.99 1023.04 1023.12 1023.22 1023.35 1023.49 1023.66 1023.83 1024.00 1024.14 1024.24
1015.87 1016.20 1016.57 1016.97 1017.40 1017.83 1018.28 1018.73 1019.17 1019.62 1020.05 1020.48 1020.88 1021.26 1021.61 1021.92 1022.19 1022.42 1022.61 1022.75 1022.86 1022.93 1022.97 1022.98 1022.97 1022.95 1022.91 1022.86 1022.80 1022.74 1022.69 1022.65 1022.62 1022.61 1022.64 1022.69 1022.78 1022.91 1023.06 1023.24 1023.43 1023.62 1023.79 1023.93
1016.04 1016.45 1016.90 1017.36 1017.82 1018.28 1018.73 1019.16 1019.58 1019.98 1020.37 1020.74 1021.10 1021.44 1021.77 1022.07 1022.35 1022.59 1022.80 1022.97 1023.10 1023.18 1023.22 1023.21 1023.17 1023.10 1023.00 1022.88 1022.75 1022.62 1022.50 1022.39 1022.32 1022.27 1022.26 1022.30 1022.38 1022.51 1022.66 1022.85 1023.05 1023.26 1023.45 1023.62
1016.15 1016.63 1017.14 1017.64 1018.14 1018.61 1019.05 1019.47 1019.87 1020.24 1020.60 1020.95 1021.29 1021.63 1021.96 1022.27 1022.57 1022.85 1023.08 1023.28 1023.42 1023.51 1023.54 1023.51 1023.43 1023.31 1023.15 1022.96 1022.77 1022.57 1022.40 1022.24 1022.13 1022.06 1022.03 1022.06 1022.14 1022.26 1022.42 1022.60 1022.81 1023.02 1023.22 1023.40
1016.22 1016.76 1017.30 1017.84 1018.35 1018.82 1019.26 1019.66 1020.04 1020.40 1020.75 1021.09 1021.44 1021.80 1022.15 1022.50 1022.84 1023.14 1023.41 1023.63 1023.78 1023.87 1023.88 1023.83 1023.71 1023.54 1023.34 1023.10 1022.86 1022.63 1022.42 1022.25 1022.12 1022.04 1022.02 1022.05 1022.12 1022.24 1022.40 1022.58 1022.78 1022.98 1023.17 1023.34
1016.31 1016.88 1017.45 1017.99 1018.50 1018.96 1019.38 1019.77 1020.13 1020.49 1020.84 1021.20 1021.57 1021.95 1022.34 1022.73 1023.10 1023.44 1023.73 1023.96 1024.12 1024.20 1024.20 1024.13 1023.99 1023.79 1023.55 1023.30 1023.04 1022.80 1022.59 1022.43 1022.32 1022.25 1022.25 1022.29 1022.37 1022.50 1022.64 1022.81 1022.98 1023.16 1023.32 1023.46
1016.46 1017.06 1017.63 1018.16 1018.65 1019.09 1019.49 1019.86 1020.20 1020.55 1020.90 1021.28 1021.67 1022.08 1022.50 1022.92 1023.32 1023.69 1024.00 1024.24 1024.40 1024.47 1024.46 1024.37 1024.22 1024.01 1023.77 1023.52 1023.28 1023.06 1022.89 1022.76 1022.68 1022.65 1022.67 1022.74 1022.84 1022.96 1023.10 1023.24 1023.38 1023.52 1023.64 1023.74
1016.72 1017.32 1017.89 1018.40 1018.86 1019.26 1019.63 1019.97 1020.29 1020.63 1020.98 1021.36 1021.77 1022.20 1022.64 1023.08 1023.49 1023.87 1024.18 1024.42 1024.58 1024.64 1024.63 1024.54 1024.38 1024.19 1023.97 1023.75 1023.54 1023.37 1023.24 1023.17 1023.14 1023.16 1023.22 1023.31 1023.42 1023.54 1023.67 1023.78 1023.89 1023.98 1024.05 1024.11
1017.08 1017.67 1018.22 1018.70 1019.12 1019.49 1019.81 1020.12 1020.43 1020.74 1021.08 1021.46 1021.87 1022.30 1022.75 1023.19 1023.60 1023.97 1024.28 1024.51 1024.66 1024.72 1024.70 1024.62 1024.48 1024.31 1024.13 1023.95 1023.80 1023.69 1023.62 1023.59 1023.62 1023.68 1023.78 1023.89 1024.02 1024.14 1024.25 1024.34 1024.41 1024.47 1024.50 1024.51
1017.47 1018.05 1018.57 1019.02 1019.40 1019.73 1020.03 1020.31 1020.58 1020.88 1021.21 1021.58 1021.97 1022.40 1022.83 1023.26 1023.66 1024.01 1024.30 1024.52 1024.66 1024.72 1024.70 1024.64 1024.52 1024.39 1024.25 1024.12 1024.03 1023.97 1023.96 1023.99 1024.06 1024.16 1024.28 1024.42 1024.55 1024.66 1024.76 1024.84 1024.89 1024.92 1024.92 1024.90
1017.80 1018.37 1018.87 1019.29 1019.64 1019.95 1020.22 1020.47 1020.74 1021.02 1021.34 1021.69 1022.07 1022.47 1022.89 1023.29 1023.67 1023.99 1024.27 1024.47 1024.60 1024.66 1024.66 1024.61 1024.53 1024.44 1024.35 1024.28 1024.23 1024.23 1024.26 1024.33 1024.44 1024.56 1024.70 1024.84 1024.97 1025.08 1025.17 1025.24 1025.29 1025.31 1025.30 1025.28
1017.98 1018.54 1019.01 1019.42 1019.76 1020.06 1020.32 1020.57 1020.84 1021.11 1021.43 1021.77 1022.13 1022.52 1022.91 1023.29 1023.63 1023.94 1024.19 1024.38 1024.51 1024.57 1024.59 1024.57 1024.53 1024.48 1024.44 1024.42 1024.43 1024.46 1024.53 1024.63 1024.75 1024.89 1025.03 1025.17 1025.30 1025.41 1025.51 1025.58 1025.63 1025.67 1025.68 1025.68
1017.94 1018.49 1018.96 1019.37 1019.72 1020.02 1020.30 1020.57 1020.84 1021.13 1021.45 1021.79 1022.15 1022.52 1022.88 1023.24 1023.56 1023.85 1024.08 1024.27 1024.40 1024.48 1024.53 1024.55 1024.55 1024.55 1024.56 1024.58 1024.63 1024.70 1024.79 1024.91 1025.04 1025.18 1025.32 1025.46 1025.59 1025.71 1025.81 1025.90 1025.98 1026.04 1026.10 1026.13
1017.67 1018.22 1018.70 1019.12 1019.49 1019.82 1020.13 1020.43 1020.74 1021.06 1021.39 1021.74 1022.10 1022.46 1022.81 1023.15 1023.45 1023.72 1023.95 1024.14 1024.29 1024.40 1024.48 1024.54 1024.59 1024.64 1024.70 1024.77 1024.86 1024.96 1025.08 1025.21 1025.34 1025.48 1025.63 1025.76 1025.90 1026.03 1026.15 1026.27 1026.38 1026.49 1026.59 1026.67
Thickness
5662 5667 5670 5668 5670 5675 5675 5678 5679 5680 5674 5665 5657 5652 5643 5635 5628 5620 5614 5609 5605 5600 5597 5594 5591 5587 5583 5579 5575 5571 5567 5561 5554 5548 5543 5537 5532 5526 5521 5517 5512 5507 5503 5499
5648 5654 5657 5655 5658 5661 5661 5665 5667 5666 5657 5655 5648 5640 5630 5622 5615 5608 5600 5594 5589 5584 5579 5576 5573 5569 5564 5560 5555 5551 5546 5540 5534 5529 5523 5518 5513 5509 5504 5500 5496 5492 5487 5483
5638 5644 5643 5640 5642 5645 5647 5650 5649 5647 5643 5637 5627 5617 5612 5607 5601 5593 5585 5578 5573 5567 5563 5559 5556 5552 5547 5542 5536 5531 5526 5520 5515 5510 5506 5502 5498 5493 5489 5484 5480 5475 5471 5466
5629 5626 5616 5624 5632 5632 5630 5628 5630 5629 5625 5617 5605 5595 5590 5589 5584 5576 5569 5562 5556 5552 5547 5543 5538 5534 5529 5524 5519 5513 5508 5503 5499 5496 5491 5487 5483 5477 5472 5468 5464 5460 5455 5451
5617 5617 5619 5615 5617 5618 5616 5612 5611 5607 5599 5593 5589 5583 5570 5565 5564 5559 5553 5547 5543 5538 5534 5529 5523 5518 5513 5508 5503 5498 5494 5490 5486 5482 5477 5473 5467 5461 5457 5453 5449 5446 5441 5438
5605 5598 5598 5597 5605 5610 5608 5597 5596 5594 5589 5585 5585 5579 5558 5548 5546 5541 5537 5532 5528 5524 5520 5514 5509 5504 5500 5495 5490 5486 5482 5477 5472 5467 5462 5457 5451 5447 5443 5439 5436 5433 5429 5425
5595 5591 5594 5588 5597 5602 5588 5578 5584 5584 5581 5577 5570 5563 5546 5537 5533 5529 5524 5520 5516 5512 5507 5501 5496 5492 5488 5483 5479 5474 5469 5464 5458 5452 5447 5442 5438 5434 5430 5428 5424 5421 5418 5415
5586 5581 5574 5578 5588 5578 5570 5575 5576 5573 5568 5560 5550 5540 5533 5527 5522 5518 5513 5509 5506 5501 5495 5490 5486 5483 5478 5473 5467 5462 5457 5451 5445 5439 5436 5431 5426 5422 5419 5417 5415 5412 5408 5406
5577 5571 5567 5569 5568 5567 5570 5569 5566 5563 5556 5548 5539 5530 5523 5517 5513 5508 5504 5500 5495 5491 5486 5482 5478 5473 5468 5461 5456 5450 5445 5439 5433 5428 5423 5419 5416 5413 5411 5408 5406 5403 5400 5398
5573 5570 5566 5564 5564 5563 5563 5561 5559 5554 5547 5540 5530 5521 5514 5509 5504 5500 5495 5491 5488 5485 5480 5474 5469 5463 5457 5452 5446 5440 5434 5428 5423 5418 5414 5409 5406 5405 5403 5400 5398 5395 5392 5390
5569 5567 5563 5558 5555 5553 5551 5550 5547 5543 5538 5530 5522 5514 5508 5502 5497 5493 5489 5485 5481 5477 5471 5466 5460 5454 5448 5442 5436 5431 5425 5420 5415 5411 5407 5402 5399 5395 5393 5389 5385 5383 5384 5383
5564 5561 5558 5551 5547 5545 5542 5539 5536 5531 5524 5517 5512 5506 5501 5496 5491 5486 5482 5478 5473 5469 5464 5458 5453 5446 5440 5433 5428 5422 5417 5411 5408 5404 5400 5398 5395 5392 5382 5380 5376 5374 5372 5371
5558 5554 5550 5543 5540 5537 5534 5530 5526 5521 5514 5508 5502 5499 5494 5489 5485 5481 5476 5472 5467 5462 5456 5451 5445 5438 5432 5425 5419 5414 5408 5404 5401 5398 5395 5394 5392 5391 5387 5380 5375 5373 5371 5371
5549 5546 5540 5536 5531 5527 5524 5520 5515 5510 5505 5501 5497 5493 5489 5485 5480 5476 5471 5466 5461 5456 5451 5445 5439 5432 5426 5419 5413 5408 5403 5398 5395 5394 5391 5391 5390 5389 5388 5387 5384 5380 5375 5373
5545 5541 5536 5530 5523 5518 5514 5511 5507 5503 5499 5495 5492 5489 5485 5481 5476 5472 5466 5462 5456 5451 5446 5441 5435 5428 5421 5415 5410 5405 5401 5398 5394 5392 5391 5390 5389 5389 5388 5387 5385 5383 5382 5379
5539 5534 5529 5523 5517 5512 5509 5507 5504 5500 5497 5493 5490 5486 5483 5478 5473 5468 5463 5458 5454 5448 5442 5437 5431 5425 5419 5413 5408 5405 5401 5392 5390 5393 5392 5391 5390 5389 5388 5387 5386 5385 5383 5381
5535 5529 5523 5518 5513 5509 5507 5506 5503 5500 5496 5492 5488 5484 5480 5475 5470 5465 5460 5455 5450 5444 5439 5433 5428 5423 5419 5414 5409 5408 5405 5399 5389 5395 5394 5393 5392 5390 5389 5389 5388 5387 5385 5381
5537 5531 5525 5519 5514 5510 5507 5505 5502 5499 5495 5491 5487 5483 5479 5474 5469 5463 5458 5453 5448 5443 5437 5432 5425 5422 5419 5415 5410 5409 5408 5404 5401 5399 5396 5394 5392 5392 5392 5391 5390 5389 5388 5388
5533 5527 5522 5517 5514 5510 5507 5503 5501 5498 5494 5491 5487 5483 5478 5473 5467 5461 5457 5454 5450 5445 5437 5432 5424 5424 5421 5415 5411 5412 5410 5408 5404 5401 5399 5392 5396 5395 5394 5393 5392 5392 5392 5392
5528 5523 5519 5515 5512 5509 5505 5502 5500 5496 5494 5491 5486 5481 5476 5471 5466 5462 5458 5454 5449 5443 5437 5431 5431 5427 5423 5419 5415 5418 5414 5411 5408 5406 5403 5402 5399 5398 5396 5395 5395 5395 5394 5394
5524 5520 5516 5513 5509 5506 5504 5501 5498 5495 5492 5490 5486 5481 5476 5471 5467 5464 5462 5458 5448 5443 5440 5435 5434 5431 5427 5422 5420 5422 5418 5415 5412 5409 5407 5405 5402 5400 5399 5398 5397 5396 5396 5396
5522 5518 5515 5511 5508 5504 5502 5500 5498 5495 5492 5489 5486 5481 5477 5472 5469 5465 5461 5457 5451 5443 5446 5443 5437 5429 5427 5425 5427 5424 5420 5417 5414 5411 5408 5406 5404 5402 5399 5398 5398 5397 5397 5397
5519 5516 5512 5509 5506 5503 5501 5499 5497 5494 5491 5489 5486 5483 5480 5477 5475 5472 5466 5459 5456 5447 5448 5442 5433 5430 5427 5432 5429 5425 5421 5417 5414 5411 5407 5404 5403 5401 5399 5398 5398 5397 5397 5397
5516 5513 5510 5507 5505 5501 5499 5498 5496 5494 5492 5491 5487 5484 5481 5478 5475 5473 5467 5456 5452 5451 5450 5440 5435 5433 5432 5436 5431 5428 5423 5418 5414 5410 5407 5404 5402 5400 5398 5398 5398 5397 5397 5397
5514 5511 5508 5505 5502 5501 5499 5497 5495 5493 5492 5490 5487 5484 5484 5482 5479 5474 5469 5463 5456 5456 5454 5445 5440 5439 5440 5438 5434 5428 5422 5417 5414 5411 5406 5404 5403 5400 5398 5398 5398 5398 5398 5398
5511 5509 5506 5504 5504 5502 5500 5499 5497 5496 5494 5492 5490 5487 5485 5482 5478 5475 5471 5468 5464 5460 5461 5456 5452 5447 5446 5441 5435 5430 5426 5421 5417 5412 5409 5406 5403 5402 5400 5399 5398 5399 5398 5398
5509 5508 5505 5505 5503 5502 5502 5501 5499 5498 5497 5495 5493 5489 5486 5484 5481 5479 5476 5474 5472 5469 5466 5462 5458 5454 5449 5444 5439 5434 5429 5425 5421 5417 5413 5410 5407 5405 5403 5401 5401 5401 5401 5400